Tracking 19572 objects as of 23-Feb-2019
HD Live streaming from Space Station
objects crossing your sky now

MIRANDA (X-4)

Track MIRANDA (X-4) now!
10-day predictions
MIRANDA (X-4) is classified as:


NORAD ID: 7213
Int'l Code: 1974-013A
Perigee: 672.8 km
Apogee: 839.3 km
Inclination: 97.8 °
Period: 99.8 minutes
Semi major axis: 7127 km
RCS: 0.7069 m2 (medium)
Launch date: March 9, 1974
Source: United Kingdom (UK)
Launch site: AIR FORCE WESTERN TEST RANGE (AFWTR)
aabbcc
Your satellite tracking list
Your tracking list is empty




NASA's NSSDC Master Catalog

Two Line Element Set (TLE):
1  7213U 74013A   19054.02405742  .00000023  00000-0  18182-4 0  9990
2  7213  97.7896  77.4921 0116858 253.0950 105.7403 14.42902818354645
Source of the keplerian elements: AFSPC